Wind_Speed
9 9 10 10 11 11 11 11 12 12 13 14 14 14 14 14 14 14 15 16 17 17 18 18 19 18 18 19 19 19 19 20 20 20 20 21 21 22
10 10 11 11 13 13 13 13 13 13 14 15 16 16 15 15 15 16 16 17 18 18 19 19 20 20 20 21 20 20 20 21 22 22 23 23 23 23
10 11 11 11 12 12 13 13 13 14 14 14 15 16 16 16 17 17 18 19 19 19 20 21 22 23 23 23 22 22 22 23 23 24 24 25 26 25
12 12 12 12 13 13 13 14 14 14 14 14 15 16 17 17 17 18 18 19 20 21 22 23 24 24 25 25 26 26 26 26 26 26 27 27 28 29
12 12 13 14 14 14 15 15 16 16 16 16 17 18 18 18 17 18 18 19 20 21 22 23 24 25 26 27 28 28 28 28 29 29 29 29 30 31
13 13 13 14 15 15 16 16 16 17 17 18 18 19 19 18 19 19 20 21 22 23 24 24 24 25 27 28 29 30 30 31 31 31 31 31 32 32
13 14 14 14 15 15 15 16 17 17 17 17 18 18 18 19 19 20 21 21 22 23 24 25 26 27 28 29 30 31 32 32 32 33 34 34 34 35
14 14 14 15 15 16 16 16 17 17 18 18 18 18 19 20 21 21 22 22 23 24 24 25 27 28 29 30 31 32 33 33 33 34 35 36 36 37
14 14 14 15 17 17 17 18 19 19 19 19 19 19 20 21 22 23 23 24 24 24 25 26 28 28 29 31 32 33 34 35 35 36 37 38 40 41
14 15 15 16 17 18 18 19 19 19 20 20 20 21 22 23 23 24 24 25 26 26 27 27 28 29 30 31 32 34 35 36 37 39 40 41 42 43
15 16 16 17 18 18 19 19 19 20 20 21 21 22 23 23 24 24 25 25 26 27 28 29 30 31 32 33 34 34 35 37 39 40 41 42 43 44
16 16 17 18 18 19 19 20 20 21 22 22 23 23 24 24 25 26 27 27 28 28 29 30 32 33 34 35 36 37 37 39 40 40 41 41 41 42
17 17 18 19 20 21 21 22 22 22 23 23 24 25 26 27 27 28 28 29 30 30 31 32 33 34 35 36 37 37 38 38 38 39 39 40 41 42
18 19 20 21 22 23 23 23 23 24 24 25 26 27 28 29 29 29 30 30 31 32 33 33 34 35 36 37 38 38 38 38 38 39 40 41 43 43
20 21 22 22 23 23 24 24 25 25 26 26 27 29 29 30 30 30 31 31 32 33 34 34 35 36 36 37 37 37 38 38 39 40 41 42 42 43
21 22 23 24 24 24 25 26 27 27 27 28 29 30 30 31 31 32 32 33 33 34 34 35 35 35 36 37 37 37 38 39 40 40 41 42 42 43
22 23 24 25 26 26 27 27 28 28 29 29 30 30 31 32 32 33 33 34 34 34 35 35 35 36 37 38 38 39 39 39 40 41 41 42 42 42
24 25 26 26 27 27 27 28 28 29 30 30 31 31 32 33 33 33 33 34 34 35 35 36 36 37 38 39 39 40 40 40 41 41 41 41 41 42
26 26 27 27 27 28 28 29 29 30 31 31 32 32 33 34 35 35 35 36 36 36 37 37 37 38 38 39 39 40 40 40 41 41 42 42 42 42
26 26 27 28 28 28 29 29 30 31 32 32 33 34 34 35 35 36 37 37 37 38 38 38 38 39 39 39 39 40 41 41 41 42 42 43 43 43
26 26 27 28 28 29 30 30 31 31 32 33 34 35 35 36 36 37 38 38 39 39 39 39 40 40 40 40 40 41 41 42 42 42 42 42 42 42
27 27 28 28 29 30 31 31 32 33 34 35 36 36 37 37 38 38 39 39 40 40 40 40 40 41 41 41 41 41 41 42 42 42 42 43 42 41
28 28 28 29 31 31 31 32 33 34 35 36 36 37 37 37 38 38 39 39 40 40 41 41 41 41 41 41 42 42 42 42 42 41 41 41 41 41
Wind_Direction
282 284 282 284 286 288 286 285 286 284 283 282 283 281 278 279 278 274 272 270 268 267 266 267 266 267 268 268 268 268 270 270 270 270 272 273 274 274
283 283 285 286 286 286 287 288 287 285 283 283 282 281 280 279 278 276 275 274 270 267 267 268 269 268 269 269 269 270 271 272 272 272 273 274 274 275
285 286 287 288 289 287 286 287 287 287 289 287 286 286 282 279 277 276 276 272 269 268 269 270 271 269 269 269 270 271 272 274 274 274 274 274 275 276
285 284 285 285 288 287 285 286 286 289 290 289 289 289 287 285 282 282 280 274 271 270 270 271 272 271 271 270 271 271 272 273 274 275 275 275 275 275
287 287 285 286 288 287 286 287 288 290 291 288 288 289 289 287 284 285 282 280 277 275 275 274 273 272 272 271 272 273 272 273 275 277 276 276 276 276
293 291 289 289 289 288 287 288 289 291 293 292 291 290 289 290 288 288 285 282 280 280 279 278 276 275 275 275 274 274 274 274 275 276 276 276 276 276
294 293 291 292 293 292 292 290 291 292 294 293 291 288 288 288 290 289 287 287 285 283 281 279 279 279 278 277 277 276 275 274 274 276 275 275 276 276
294 293 292 294 293 294 295 295 294 292 292 292 289 288 287 286 288 289 289 288 286 284 284 282 281 279 279 278 277 277 276 275 275 276 277 277 276 275
297 296 296 298 296 296 295 296 297 293 293 292 290 290 290 289 290 292 291 290 288 287 287 285 283 283 282 280 279 279 279 278 277 276 277 279 279 278
298 301 301 301 300 300 300 298 296 295 295 294 291 291 292 291 291 291 291 291 291 289 288 287 286 284 283 282 282 281 280 280 279 279 278 278 279 279
297 300 302 303 304 304 304 303 301 298 295 294 293 292 292 292 293 293 293 293 292 291 289 287 286 285 285 285 285 284 283 282 281 281 280 280 279 279
298 300 302 303 305 307 306 307 306 303 298 294 293 293 294 295 295 295 293 292 292 291 289 287 287 286 286 286 286 286 285 284 283 282 281 282 282 282
298 300 302 304 305 306 306 307 308 306 303 298 296 295 296 297 296 295 293 293 293 292 290 288 287 287 287 287 288 287 285 285 285 285 284 283 283 282
297 299 300 302 303 304 305 305 307 307 305 301 298 297 297 298 297 296 295 295 295 294 292 290 289 289 289 289 289 288 287 286 286 286 286 286 286 285
297 298 300 300 301 302 302 302 303 303 304 303 301 300 299 298 298 297 297 297 297 296 295 293 292 291 290 290 290 289 288 288 288 288 287 287 287 287
298 299 300 300 300 300 301 301 301 301 303 303 302 302 301 299 299 299 299 299 298 298 297 296 295 294 293 293 292 292 291 290 290 289 289 289 288 288
298 300 302 303 302 300 300 301 303 303 303 304 305 305 304 303 303 302 301 301 300 299 299 299 298 297 296 295 294 293 293 292 292 291 290 291 290 290
298 299 300 302 302 302 302 303 304 304 304 305 305 305 305 304 303 303 302 301 301 301 300 299 298 297 297 297 296 295 294 293 293 292 292 292 292 291
297 297 298 300 301 302 302 303 304 304 305 305 305 306 305 303 303 302 302 302 302 301 300 299 299 298 297 297 296 296 296 295 295 294 294 293 293 294
296 297 298 300 302 303 304 304 304 304 305 305 305 305 305 304 304 303 304 303 302 301 300 299 300 300 300 298 297 296 296 296 295 295 295 295 295 295
296 298 299 300 301 302 304 304 304 304 304 304 304 304 303 303 303 303 303 303 303 302 301 300 300 300 299 299 298 298 298 298 297 297 296 296 295 295
295 297 298 300 300 301 302 303 303 303 304 304 303 303 303 303 303 303 303 303 303 303 302 302 302 301 301 300 299 299 299 299 299 299 298 297 297 296
294 295 296 298 299 300 301 302 302 303 303 304 304 304 305 306 305 305 305 305 305 305 304 303 303 302 302 301 301 300 300 300 299 299 299 299 298 297
Height
5890 5890 5889 5888 5888 5887 5886 5885 5885 5883 5882 5881 5879 5878 5877 5876 5876 5875 5874 5873 5872 5872 5871 5871 5871 5870 5869 5869 5868 5867 5867 5866 5865 5864 5864 5863 5862 5861
5887 5887 5886 5885 5884 5883 5883 5882 5880 5879 5878 5877 5875 5874 5873 5872 5872 5871 5870 5869 5868 5867 5867 5866 5866 5865 5864 5864 5863 5862 5861 5860 5859 5859 5858 5857 5856 5855
5884 5884 5883 5882 5881 5880 5879 5878 5877 5875 5874 5873 5871 5870 5869 5868 5867 5866 5865 5863 5863 5862 5862 5861 5860 5859 5859 5858 5857 5856 5855 5854 5853 5852 5852 5851 5850 5849
5881 5880 5879 5879 5878 5876 5875 5874 5873 5871 5870 5869 5867 5866 5864 5863 5862 5861 5860 5859 5858 5857 5856 5855 5854 5853 5853 5852 5851 5849 5848 5848 5847 5846 5845 5844 5842 5841
5877 5876 5875 5875 5874 5873 5871 5870 5869 5868 5866 5865 5863 5861 5860 5858 5857 5856 5855 5854 5852 5851 5850 5849 5847 5847 5846 5845 5844 5842 5841 5840 5839 5838 5837 5835 5834 5833
5874 5872 5871 5871 5870 5868 5867 5866 5865 5863 5862 5860 5859 5857 5855 5854 5852 5851 5849 5848 5847 5845 5844 5842 5841 5839 5838 5837 5836 5835 5833 5832 5831 5830 5828 5827 5825 5824
5870 5869 5868 5867 5866 5864 5863 5862 5860 5859 5857 5856 5854 5852 5851 5849 5847 5846 5844 5843 5841 5839 5837 5836 5834 5833 5831 5829 5828 5826 5824 5823 5822 5820 5819 5817 5816 5814
5867 5865 5864 5863 5862 5860 5859 5857 5855 5854 5852 5851 5849 5847 5846 5844 5842 5840 5838 5836 5835 5833 5831 5829 5827 5825 5823 5821 5819 5817 5815 5814 5812 5811 5809 5807 5805 5803
5863 5861 5860 5858 5857 5855 5854 5852 5851 5849 5847 5846 5844 5842 5841 5839 5837 5835 5832 5830 5828 5826 5824 5822 5819 5817 5815 5813 5810 5808 5806 5804 5802 5800 5798 5796 5794 5792
5859 5858 5856 5854 5852 5851 5849 5847 5845 5844 5842 5840 5839 5837 5834 5832 5830 5828 5826 5823 5821 5818 5816 5814 5811 5809 5806 5804 5801 5799 5796 5794 5791 5789 5787 5785 5782 5780
5855 5853 5852 5850 5848 5846 5844 5842 5840 5838 5836 5834 5833 5830 5828 5826 5824 5821 5819 5816 5814 5811 5808 5805 5803 5800 5797 5794 5791 5789 5786 5783 5780 5777 5775 5772 5770 5767
5851 5849 5847 5846 5844 5841 5839 5836 5834 5832 5830 5827 5826 5824 5821 5819 5816 5814 5811 5809 5806 5803 5799 5797 5794 5791 5788 5785 5781 5778 5775 5772 5769 5766 5763 5760 5757 5754
5847 5845 5843 5841 5839 5836 5834 5831 5828 5826 5823 5821 5819 5816 5814 5811 5808 5806 5803 5800 5797 5794 5790 5787 5784 5781 5778 5775 5771 5768 5764 5761 5757 5754 5751 5748 5745 5742
5842 5840 5838 5836 5834 5831 5828 5826 5823 5820 5817 5815 5812 5809 5806 5803 5800 5797 5794 5791 5788 5784 5781 5777 5774 5771 5767 5764 5760 5757 5753 5749 5746 5742 5739 5735 5732 5729
5836 5834 5832 5830 5827 5825 5822 5819 5816 5813 5810 5808 5805 5802 5798 5795 5791 5788 5785 5782 5778 5774 5771 5767 5764 5760 5756 5753 5749 5745 5742 5738 5734 5731 5727 5723 5719 5716
5830 5828 5826 5823 5821 5818 5815 5812 5809 5806 5803 5800 5797 5794 5790 5786 5783 5780 5776 5773 5769 5765 5761 5757 5753 5750 5746 5742 5738 5734 5730 5727 5723 5719 5715 5711 5707 5703
5824 5822 5819 5817 5814 5811 5808 5805 5802 5799 5796 5793 5789 5785 5782 5778 5774 5770 5767 5763 5759 5755 5751 5747 5743 5738 5735 5731 5727 5723 5719 5715 5711 5706 5702 5698 5694 5690
5817 5815 5812 5810 5807 5804 5801 5798 5795 5791 5788 5784 5781 5777 5773 5769 5765 5761 5757 5753 5749 5745 5741 5737 5733 5729 5724 5719 5715 5711 5707 5703 5699 5694 5690 5686 5682 5677
5810 5807 5805 5802 5799 5797 5794 5790 5787 5783 5780 5776 5772 5768 5764 5760 5756 5752 5748 5744 5739 5735 5730 5726 5722 5717 5713 5709 5704 5699 5695 5691 5686 5682 5677 5673 5669 5664
5803 5800 5797 5795 5792 5789 5786 5782 5778 5775 5771 5768 5764 5760 5756 5751 5747 5742 5738 5734 5729 5724 5720 5715 5710 5706 5701 5697 5693 5687 5682 5678 5673 5669 5665 5660 5655 5651
5795 5793 5790 5787 5784 5780 5777 5774 5770 5767 5763 5759 5755 5751 5746 5742 5737 5732 5728 5723 5718 5714 5709 5704 5699 5694 5689 5685 5680 5675 5670 5665 5660 5656 5651 5647 5643 5638
5787 5785 5782 5779 5776 5772 5769 5765 5762 5758 5754 5749 5745 5741 5736 5731 5726 5722 5717 5712 5707 5702 5697 5692 5687 5682 5677 5672 5668 5663 5658 5653 5647 5642 5637 5634 5629 5625
5779 5776 5773 5770 5767 5764 5760 5756 5753 5749 5744 5740 5735 5731 5726 5721 5716 5711 5706 5701 5696 5691 5686 5681 5675 5670 5665 5660 5655 5650 5645 5640 5635 5630 5625 5620 5616 5612